Meadow Vista, California
Current Conditions -  °F | °C
As of 10:35 AM on Wednesday 26 Nov 2014 (Local Time) from KAUN Reporting Station
Clear Clear  
Wind Chill: 64°   Ceiling: Unl
Heat Index: 64°   Visibility: 10mi
Dew Point: 39°   Wind: 0mph
Humidity: 40%   Direction: NA
Pressure: 30.34"   Gusts: NA
Location:  39°N, 121.03°W
Report Text: KAUN 261835Z AUTO 00000KT 10SM CLR 18/04 A3034 RMK AO1
Loading
Personal Weather Stations






























Interactive Weather Map New forecast layout! Learn more

10-Day Weather Forecast

Advertisements
Track Severe Weather on mobile